Wind_Speed
93 91 90 89 96 91 91 91 92 92 91 90 90 90 90 84 78 75 77 72 69 73 71 69 69 66 63 61 59 57 56 56 55 45 48 46 42 39 39 39 39 38 37 36 34
92 98 95 92 91 91 96 98 99 97 96 95 90 90 88 89 86 80 79 78 82 75 72 71 67 67 65 62 60 59 57 58 54 50 48 47 45 42 42 41 42 43 42 41 38
62 65 83 92 93 93 93 93 92 96 98 99 96 97 92 91 91 87 84 85 80 76 76 75 69 68 64 65 61 60 61 57 53 50 49 49 47 43 44 45 44 45 45 44 43
40 42 50 67 76 79 84 93 88 93 93 98 100 94 89 87 86 85 82 84 84 77 75 74 71 68 64 66 63 61 60 57 52 51 51 49 47 46 47 48 45 48 49 49 47
42 39 38 39 47 56 60 65 68 76 78 85 84 85 85 83 84 80 80 80 79 79 77 74 73 64 63 63 61 60 60 57 53 53 54 51 49 49 51 52 50 50 51 53 53
35 38 40 39 38 38 41 46 50 53 57 61 64 65 67 73 76 79 78 75 75 73 71 73 67 64 62 64 62 59 61 56 55 56 56 54 52 50 53 54 53 51 54 56 55
30 35 36 39 40 41 40 39 41 43 45 48 49 53 57 59 62 65 69 69 69 68 68 66 65 63 63 63 63 59 60 57 58 59 58 58 55 57 55 55 57 58 57 59 59
31 33 36 36 38 43 45 43 42 43 44 45 45 47 49 51 56 61 62 63 64 63 66 69 67 66 63 61 62 62 60 61 63 62 62 63 60 59 58 59 60 60 60 61 63
35 34 34 39 41 39 39 42 45 45 46 47 48 47 45 48 50 53 58 59 60 61 62 62 63 62 64 65 65 66 64 64 66 68 67 65 64 63 61 63 62 62 63 63 64
45 40 35 33 41 46 45 42 41 43 45 50 50 52 52 51 50 50 52 56 58 61 64 65 64 65 68 69 68 69 69 70 71 71 70 67 66 65 62 61 60 62 66 67 68
49 49 49 41 37 36 47 51 50 49 48 43 47 54 55 57 55 55 54 56 57 59 57 60 62 65 66 66 69 70 70 70 69 70 70 67 71 69 66 64 66 67 70 72 73
56 57 57 54 50 50 51 48 58 57 55 53 50 48 50 57 60 60 60 59 60 59 58 59 61 62 62 62 62 62 63 65 67 69 69 65 64 66 64 68 71 72 74 76 77
62 61 61 64 63 64 58 58 54 57 62 59 58 54 53 50 57 65 66 66 65 63 63 63 64 66 66 66 67 68 69 71 72 72 72 72 68 72 71 71 73 77 81 84 86
58 63 66 65 68 68 69 63 58 58 55 63 64 62 59 58 54 58 66 68 67 68 69 69 70 71 71 72 72 73 74 75 76 76 74 75 69 72 76 79 82 86 88 90 93
63 65 67 67 67 67 70 70 64 61 57 52 63 66 63 62 60 58 57 62 67 68 69 69 70 71 72 74 76 75 77 79 80 81 79 77 79 70 77 80 84 87 90 91 93
67 67 71 73 73 75 69 71 72 68 63 60 55 70 71 69 65 63 61 59 59 60 62 63 62 62 64 66 68 70 72 74 73 72 71 69 73 59 67 69 72 75 78 80 82
71 71 75 78 79 79 78 69 71 72 69 67 59 65 74 73 70 70 66 66 66 65 64 63 62 62 63 64 65 65 65 67 67 67 65 66 67 57 61 68 71 74 79 84 88
74 78 80 79 82 82 76 78 72 71 70 69 66 59 71 75 74 75 77 76 74 71 70 70 70 70 69 70 70 71 73 77 76 73 73 73 68 67 71 74 78 83 86 90 92
83 82 91 87 83 79 80 83 74 72 72 75 72 64 64 74 81 81 78 75 78 78 78 77 74 75 76 76 78 78 81 84 86 83 82 79 77 78 78 81 84 88 92 96 99
90 97 99 83 87 80 80 77 75 76 77 74 74 71 61 74 78 82 81 80 78 77 80 79 81 79 80 81 84 89 89 91 95 96 92 85 82 79 81 87 92 97 98 102 105
98 98 91 86 83 87 81 71 74 78 79 78 77 74 62 68 80 81 81 83 83 82 84 84 84 82 84 85 87 90 91 91 97 97 99 95 83 87 90 94 98 102 104 106 108
95 95 90 89 87 87 85 79 79 78 80 81 82 72 63 65 74 81 84 87 87 86 88 87 89 86 87 87 90 94 91 89 93 96 100 101 92 95 101 105 108 109 110 113 115
86 84 82 84 83 82 82 79 80 78 81 81 77 68 68 67 73 74 79 82 89 90 90 91 90 87 84 86 89 90 92 95 98 102 101 108 102 106 110 113 116 116 118 121 120
73 70 71 72 73 74 74 73 74 73 74 72 70 68 68 67 70 77 78 83 87 89 91 93 93 90 90 89 91 94 95 100 105 104 108 106 110 110 114 117 121 123 120 118 118
62 61 63 64 66 64 66 68 67 67 68 68 66 68 70 73 72 72 77 78 80 82 85 88 88 91 95 99 100 101 103 102 102 107 112 110 114 115 118 118 119 119 119 122 124
56 55 56 58 60 62 62 60 65 62 68 64 65 70 73 75 79 78 79 78 78 78 82 85 89 88 90 94 98 96 93 98 103 108 111 115 114 121 119 120 121 123 123 125 126
53 50 51 53 56 58 60 59 59 65 69 68 68 72 70 77 82 83 84 83 83 84 88 91 91 94 95 95 98 95 98 105 108 112 115 114 117 117 118 121 123 123 121 115 107
Wind_Direction
253 255 255 257 256 259 261 261 263 262 266 266 268 270 273 274 274 275 276 274 275 277 280 279 284 280 284 283 286 284 282 283 288 286 290 286 283 278 282 283 280 281 284 287 283
253 253 255 257 258 257 260 260 264 266 264 267 267 269 269 271 272 273 273 274 278 277 278 277 279 277 282 277 284 280 276 282 282 283 281 280 280 274 277 282 282 281 281 284 280
257 250 254 254 255 257 259 260 259 260 262 261 262 266 267 266 269 270 270 272 274 274 275 275 275 271 273 277 278 275 272 277 276 277 275 276 277 272 276 278 281 282 281 279 277
264 259 256 254 259 260 257 257 257 259 259 260 262 264 264 263 267 267 267 269 270 268 270 270 269 270 267 273 271 269 269 271 272 272 272 272 273 271 275 276 277 280 280 277 275
270 270 269 261 261 261 258 258 257 258 257 255 257 260 261 258 262 262 263 263 265 267 266 268 266 266 267 267 267 267 268 269 269 270 269 270 270 273 275 275 275 279 278 277 273
291 284 269 267 266 266 265 263 261 253 255 256 254 255 259 260 260 260 261 260 262 262 263 264 264 264 264 263 263 263 265 266 267 268 268 268 270 272 271 274 277 278 279 276 277
283 282 281 272 264 264 265 268 266 261 260 259 256 254 254 255 257 258 256 256 256 258 259 259 261 261 262 262 261 261 263 264 263 266 267 268 270 268 270 271 274 277 278 279 276
311 290 275 275 270 264 261 262 263 265 262 258 259 260 260 260 258 258 258 256 257 259 261 262 260 259 259 259 260 260 261 259 259 264 266 266 267 268 269 271 273 274 275 276 275
319 309 298 275 267 264 261 263 260 265 266 265 264 261 261 261 260 259 259 257 258 257 257 258 258 259 263 259 257 258 258 260 261 263 263 265 265 268 270 271 272 273 274 273 273
331 321 303 293 284 269 266 260 261 262 262 264 263 263 261 260 261 261 262 261 261 260 257 255 253 255 256 255 257 258 256 258 259 260 260 261 262 265 268 271 272 271 271 272 273
329 324 317 306 291 292 276 267 261 259 257 259 263 260 260 262 263 262 262 261 262 262 262 263 261 260 260 262 262 261 262 262 262 262 264 264 263 264 267 269 267 267 271 272 271
310 316 318 314 304 296 292 282 264 260 258 256 257 260 263 261 259 260 261 261 260 260 261 261 260 260 261 262 262 260 260 262 262 261 262 263 262 265 267 268 270 271 271 270 270
309 304 310 308 309 309 303 294 283 269 257 260 256 254 259 262 261 257 256 258 260 261 261 262 262 264 264 263 263 263 263 264 264 262 263 263 263 267 269 269 270 270 271 272 273
304 306 303 305 307 304 305 303 298 286 269 259 259 257 253 258 261 260 257 256 256 257 258 260 261 262 264 265 265 266 265 264 265 265 265 266 265 267 269 268 268 269 270 270 270
305 299 302 301 303 303 301 301 299 303 289 281 256 254 257 254 255 258 258 258 258 258 258 259 260 260 261 261 262 263 264 265 266 267 268 269 268 265 266 270 271 270 270 271 271
299 297 295 301 301 300 297 295 297 296 304 293 270 251 254 254 250 255 256 257 258 259 258 257 258 260 261 261 260 261 263 265 266 268 267 267 268 265 266 264 268 272 275 275 276
291 298 294 299 299 297 295 293 292 296 297 298 291 260 251 254 256 254 253 256 259 257 255 256 258 260 262 263 265 266 265 266 266 267 266 267 268 271 268 269 269 270 272 273 274
287 292 297 294 293 291 292 288 289 293 295 294 295 285 254 252 254 257 257 256 255 255 257 258 258 260 262 265 266 268 269 270 269 269 270 271 272 269 270 273 273 270 268 268 271
289 287 291 291 288 287 287 288 289 290 292 291 292 295 265 253 253 255 256 260 262 261 261 260 262 264 265 266 267 266 267 269 271 271 272 275 275 273 272 271 271 271 272 273 274
288 285 288 282 285 283 281 283 287 286 287 289 290 291 274 253 254 257 256 258 258 261 262 263 262 263 266 268 271 273 274 275 275 274 275 279 275 274 272 272 272 270 270 272 273
289 285 282 282 278 278 281 277 283 286 284 285 286 290 275 260 252 253 258 259 258 260 263 264 264 264 266 268 271 272 271 272 275 275 277 275 274 276 276 273 272 272 273 275 277
288 285 284 280 277 276 279 279 280 280 282 283 287 285 273 263 254 253 253 257 258 260 262 265 265 266 267 269 271 272 270 272 273 274 274 275 273 274 274 274 274 276 276 278 278
288 285 283 280 278 276 274 273 272 273 276 278 282 276 270 268 256 251 254 259 260 260 261 264 266 267 268 269 270 270 272 273 275 277 278 276 278 276 275 275 276 277 278 279 279
293 289 285 281 278 275 274 271 270 271 273 274 274 270 267 264 263 256 256 258 260 262 263 264 266 268 268 269 270 271 272 274 277 279 276 277 276 278 278 279 279 280 280 281 281
298 295 289 283 278 272 269 269 266 266 266 268 266 266 263 262 264 265 261 262 263 266 267 269 271 272 272 273 273 274 273 274 274 275 276 277 278 278 280 280 281 280 280 281 281
307 300 294 286 279 271 266 263 264 262 261 262 259 261 263 261 261 262 266 266 266 268 271 273 275 275 273 275 276 274 274 274 275 276 276 276 279 280 282 281 282 282 282 283 282
316 307 300 293 285 275 267 260 257 258 259 259 257 257 264 261 260 262 263 263 264 265 266 267 270 270 270 271 272 274 273 274 275 277 279 280 281 281 281 282 283 283 282 282 280
Height
10755 10757 10759 10760 10761 10762 10764 10766 10766 10769 10769 10770 10771 10771 10771 10771 10772 10773 10773 10774 10776 10775 10775 10775 10776 10775 10775 10774 10773 10772 10772 10771 10771 10767 10770 10768 10767 10768 10769 10770 10770 10769 10767 10767 10766
10741 10742 10744 10744 10746 10748 10751 10751 10753 10752 10754 10754 10755 10755 10757 10758 10758 10760 10760 10760 10761 10760 10761 10762 10762 10763 10761 10764 10761 10761 10761 10761 10760 10759 10759 10757 10757 10758 10758 10759 10759 10759 10758 10757 10756
10727 10724 10729 10727 10732 10733 10734 10734 10735 10737 10738 10740 10741 10741 10742 10744 10743 10744 10745 10745 10745 10747 10748 10750 10748 10749 10748 10751 10748 10749 10749 10749 10748 10747 10749 10747 10745 10747 10748 10748 10749 10748 10747 10748 10747
10716 10712 10710 10714 10715 10714 10715 10718 10719 10720 10719 10723 10724 10724 10725 10727 10728 10728 10728 10729 10730 10731 10732 10734 10735 10734 10734 10735 10735 10736 10737 10736 10736 10736 10737 10738 10735 10735 10737 10737 10738 10738 10737 10736 10736
10707 10704 10702 10701 10700 10701 10698 10699 10697 10700 10701 10703 10706 10707 10709 10711 10711 10712 10713 10713 10714 10715 10717 10719 10721 10718 10721 10721 10722 10724 10723 10723 10723 10723 10725 10726 10725 10723 10722 10724 10726 10727 10727 10727 10726
10700 10696 10694 10692 10691 10689 10688 10688 10688 10687 10686 10686 10687 10689 10692 10693 10694 10696 10697 10698 10699 10699 10701 10705 10704 10705 10706 10707 10709 10709 10710 10710 10710 10711 10712 10713 10714 10713 10709 10709 10711 10712 10713 10713 10713
10694 10691 10686 10682 10680 10680 10679 10678 10676 10674 10674 10675 10675 10675 10677 10677 10677 10679 10681 10681 10683 10683 10685 10687 10688 10690 10691 10693 10695 10695 10698 10697 10696 10697 10700 10701 10703 10696 10698 10698 10698 10698 10698 10698 10697
10686 10682 10678 10675 10671 10668 10666 10665 10665 10665 10663 10663 10663 10663 10661 10662 10662 10666 10667 10666 10667 10667 10670 10671 10672 10675 10676 10677 10680 10681 10684 10681 10681 10684 10686 10687 10684 10682 10683 10684 10684 10685 10685 10684 10683
10679 10675 10671 10668 10664 10659 10656 10653 10651 10651 10651 10650 10650 10649 10650 10650 10650 10652 10652 10651 10651 10653 10654 10656 10659 10660 10661 10662 10666 10666 10668 10667 10668 10668 10671 10673 10671 10667 10669 10670 10670 10669 10668 10667 10666
10671 10666 10662 10657 10654 10651 10648 10644 10641 10639 10637 10637 10637 10636 10638 10637 10637 10637 10636 10637 10638 10639 10640 10641 10642 10643 10643 10644 10650 10648 10649 10649 10650 10651 10654 10657 10656 10654 10654 10655 10655 10652 10651 10649 10649
10660 10656 10652 10647 10643 10638 10636 10632 10630 10627 10624 10623 10623 10623 10622 10622 10621 10621 10622 10623 10624 10625 10625 10627 10629 10628 10629 10630 10633 10632 10633 10635 10634 10636 10638 10641 10642 10639 10641 10641 10636 10635 10633 10631 10630
10651 10646 10642 10637 10633 10628 10621 10616 10613 10613 10612 10608 10607 10607 10606 10605 10606 10606 10607 10609 10609 10610 10610 10612 10615 10614 10613 10614 10614 10616 10616 10617 10618 10618 10621 10625 10628 10624 10628 10624 10622 10619 10615 10612 10611
10638 10633 10629 10623 10618 10615 10610 10604 10598 10596 10599 10596 10592 10592 10591 10590 10590 10590 10591 10592 10593 10594 10594 10596 10599 10597 10597 10597 10597 10599 10599 10599 10600 10601 10605 10607 10615 10610 10611 10609 10604 10599 10595 10593 10590
10623 10618 10613 10609 10604 10598 10594 10590 10584 10579 10580 10581 10577 10575 10576 10575 10575 10573 10574 10574 10575 10576 10577 10579 10580 10580 10580 10580 10580 10582 10580 10580 10581 10582 10587 10588 10601 10598 10591 10589 10584 10577 10573 10569 10566
10607 10602 10597 10591 10587 10583 10579 10572 10569 10563 10565 10561 10561 10558 10556 10557 10559 10558 10557 10557 10558 10559 10560 10562 10561 10561 10562 10561 10561 10561 10559 10559 10560 10562 10567 10571 10567 10588 10575 10570 10559 10555 10551 10548 10544
10589 10585 10578 10575 10570 10564 10560 10556 10552 10549 10549 10542 10541 10541 10540 10539 10539 10540 10540 10541 10542 10541 10541 10542 10544 10544 10543 10542 10541 10541 10539 10537 10539 10540 10549 10546 10541 10574 10557 10552 10543 10534 10527 10522 10518
10571 10564 10560 10556 10551 10543 10540 10536 10533 10534 10529 10527 10522 10521 10523 10523 10523 10522 10521 10522 10522 10523 10523 10525 10526 10526 10526 10525 10523 10522 10519 10516 10518 10519 10525 10524 10527 10546 10538 10529 10523 10518 10511 10504 10498
10552 10545 10541 10536 10530 10522 10518 10510 10518 10517 10510 10506 10503 10502 10502 10503 10504 10504 10505 10506 10502 10504 10505 10506 10508 10507 10508 10507 10506 10505 10500 10493 10493 10500 10502 10504 10514 10520 10514 10508 10502 10496 10490 10483 10476
10529 10522 10519 10515 10507 10500 10496 10486 10496 10498 10491 10486 10484 10482 10482 10481 10481 10482 10485 10488 10487 10486 10486 10489 10493 10492 10490 10487 10484 10485 10480 10472 10467 10476 10476 10485 10494 10495 10492 10486 10477 10470 10464 10457 10452
10502 10495 10495 10487 10482 10475 10471 10471 10470 10472 10468 10465 10462 10460 10461 10459 10460 10461 10466 10472 10467 10463 10461 10467 10470 10474 10472 10469 10466 10460 10461 10456 10446 10442 10449 10461 10466 10467 10466 10457 10447 10439 10434 10430 10426
10464 10455 10462 10458 10454 10448 10448 10451 10448 10446 10442 10441 10440 10439 10439 10438 10438 10442 10447 10448 10445 10442 10439 10441 10446 10455 10452 10450 10445 10441 10437 10430 10418 10421 10415 10423 10444 10443 10432 10422 10415 10410 10406 10402 10399
10428 10419 10422 10422 10419 10422 10426 10428 10426 10426 10420 10417 10414 10414 10415 10415 10415 10419 10423 10420 10425 10420 10421 10420 10423 10431 10430 10428 10424 10418 10415 10405 10396 10395 10390 10389 10413 10407 10395 10388 10383 10379 10376 10372 10366
10394 10388 10389 10388 10386 10392 10396 10401 10401 10402 10399 10398 10396 10394 10393 10393 10391 10395 10400 10400 10400 10401 10400 10401 10403 10404 10409 10404 10400 10396 10393 10384 10375 10369 10373 10357 10377 10368 10361 10355 10350 10346 10342 10336 10331
10369 10366 10364 10362 10362 10364 10367 10372 10374 10377 10375 10376 10375 10373 10372 10372 10370 10373 10379 10378 10377 10378 10377 10373 10379 10379 10380 10377 10375 10372 10371 10361 10351 10346 10337 10346 10328 10328 10323 10322 10314 10310 10305 10300 10292
10351 10348 10343 10342 10341 10341 10341 10345 10349 10352 10353 10354 10354 10353 10350 10348 10349 10353 10353 10355 10356 10353 10352 10350 10357 10356 10353 10347 10346 10347 10348 10337 10330 10318 10306 10312 10301 10298 10288 10283 10280 10274 10267 10261 10254
10338 10330 10325 10324 10321 10320 10321 10326 10325 10330 10330 10332 10333 10331 10329 10329 10328 10328 10328 10330 10333 10335 10331 10330 10330 10330 10327 10321 10317 10321 10320 10309 10298 10289 10278 10272 10278 10261 10256 10248 10242 10236 10228 10221 10213
10327 10318 10311 10308 10305 10302 10304 10304 10307 10305 10308 10309 10311 10310 10312 10310 10305 10305 10305 10307 10311 10314 10312 10308 10304 10299 10298 10297 10287 10297 10293 10277 10268 10258 10248 10245 10239 10230 10222 10213 10204 10198 10189 10181 10176